Regional Weather Roundup
Issued by NWS Mt. Holly, NJ

Home | Current Version | Previous Version | Text Only | Print | Product List | Glossary On
Versions: 1 2 3 4 5 6 7 8 9 10 11 12 13 14 15 16 17 18 19 20 21 22 23 24 25 26 27 28 29 30 31 32 33 34 35 36 37 38 39 40 41 42 43 44 45 46 47 48 49 50
000
ASUS41 KPHI 242310
RWRPHI

REGIONAL WEATHER ROUNDUP
NATIONAL WEATHER SERVICE MOUNT HOLLY NJ
700 PM EDT THU JUL 24 2014

NOTE:  "FAIR" INDICATES FEW OR NO CLOUDS BELOW 12,000 FEET WITH NO
SIGNIFICANT WEATHER AND/OR OBSTRUCTIONS TO VISIBILITY.

 * = STATION DOES NOT REPORT PRECIPITATION (E.G. RAIN, SNOW, ETC.)
        OR FOG.

NJZ015>026-250000-
SOUTHERN NEW JERSEY

CITY           SKY/WX    TMP DP  RH WIND       PRES   REMARKS
POMONA         MOSUNNY   79  57  46 N6        29.85R
RIO GRANDE*    MOSUNNY   75  61  60 NW3       29.87R
MILLVILLE      MOSUNNY   78  60  53 W5        29.86R
WRIGHTSTOWN    SUNNY     79  58  48 NW7       29.83S
MOUNT HOLLY    MOSUNNY   78  54  43 N5        29.85R
TRENTON        MOSUNNY   77  54  44 N6        29.86R

$$
NJZ001>014-250000-
NORTHERN NEW JERSEY

CITY           SKY/WX    TMP DP  RH WIND       PRES   REMARKS
SUSSEX         MOSUNNY   76  54  46 N5        29.88R
ANDOVER*         N/A     74  53  48 N6        29.89R
MORRISTOWN     PTSUNNY   77  55  47 N8        29.86R
NEWARK         PTSUNNY   81  57  43 N10       29.84R
TETERBORO      PTSUNNY   81  56  42 N8        29.84R
CALDWELL       PTSUNNY   78  56  46 N6        29.86R
SOMERVILLE     SUNNY     77  54  44 N7        29.84S
ALLAIRE*       SUNNY     79  61  53 NW6       29.85R
TOMS RIVER*    PTSUNNY   79  63  57 SE6       29.86R

$$
PAZ043-044-047-054-055-060>062-066>071-250000-
EASTERN PENNSYLVANIA

CITY           SKY/WX    TMP DP  RH WIND       PRES   REMARKS
PHILADELPHIA   CLOUDY    80  53  39 N13       29.86R
NORTH PHILA    SUNNY     79  51  37 N9        29.88R
BLUE BELL      MOSUNNY   77  55  47 CALM      29.87R
DOYLESTOWN     MOSUNNY   75  54  47 N6        29.87R
QUAKERTOWN*    MOSUNNY   75  57  53 CALM      29.90R
POTTSTOWN      PTSUNNY   75  54  47 N8        29.90R
LANCASTER      CLOUDY    75  55  49 N13       29.91R
COATESVILLE    CLOUDY    73  55  53 N6        29.91S
READING        CLOUDY    77  54  44 NW13      29.89R
ALLENTOWN      PTSUNNY   76  52  43 N12       29.89R
MOUNT POCONO   PTSUNNY   68  50  52 N10       29.95S
HAZLETON       PTSUNNY   68  50  52 N9        29.98R
WILKES BARRE   MOSUNNY   73  49  42 N13       29.94S

$$
DEZALL-MDZ008-012-015-019-020-250000-
DELAWARE AND EASTERN MARYLAND

CITY           SKY/WX    TMP DP  RH WIND       PRES   REMARKS
WILMINGTON     PTSUNNY   76  59  55 NW8       29.87R
DOVER          PTSUNNY   76  63  62 N5        29.85S
GEORGETOWN     PTSUNNY   77  65  66 VRB5      29.88R
EASTON         CLOUDY    75  68  78 CALM      29.92S
PATUXENT       LGT RAIN  70  67  90 SW3       29.89S
OCEAN CITY     CLOUDY    75  66  73 CALM      29.88R
WALLOPS ISLAND PTSUNNY   77  71  82 N5        29.89R
CAMBRIDGE      CLOUDY    77  70  78 CALM      29.89R

$$
PAZ001-021-NYZ056-072-MDZ011-DCZ001-250000-
OTHER NEARBY LOCATIONS

CITY           SKY/WX    TMP DP  RH WIND       PRES   REMARKS
HARRISBURG     PTSUNNY   76  51  41 N10       29.91R
STATE COLLEGE  MOSUNNY   72  52  49 VRB3      29.97R
WILLIAMSPORT   MOSUNNY   74  49  41 N8        29.93R
BINGHAMTON     SUNNY     65  48  54 NW10      29.99R
NEW YORK CITY  PTSUNNY   76  58  53 NE7       29.88R
BALTIMORE      CLOUDY    76  58  53 VRB7      29.89R
WASHINGTON DC  CLOUDY    79  60  52 N7        29.90R

$$


USA.gov is the U.S. government's official web portal to all federal, state and local government web resources and services.